Location: Kershaw
(34.5481°N, 80.5823°W)
Time: 08:52:42
(UTC+00:00)

Explorer 7 - Pass Details

Date: 10 October 2022
Orbit: 481 x 665 km, 50.3° (Epoch: 28 November)

Event Time Altitude Azimuth Distance (km) Brightness Sun altitude
Rises 13:09:39 0° 246° (WSW) 2,932 10.1 20.1°
Reaches altitude 10° 13:12:02 10° 253° (WSW) 2,045 9.4 20.5°
Maximum altitude 13:16:35 45° 326° (NW) 904 7.8 21.4°
Drops below altitude 10° 13:21:14 10° 39° (NE) 2,089 10.0 22.2°
Sets 13:23:41 0° 45° (NE) 3,002 10.8 22.7°
